Location: Maz�
(47.4500°N, 0.2670°W)
Time: 03:52:12
(UTC+02:00)

ISS - Visible Passes

Search period start: 19 May 2026 00:00
Search period end: 29 May 2026 00:00
Orbit: 414 x 424 km, 51.6° (Epoch: 18 May)

Date Brightness Start Highest point End Pass type
(mag) Time Alt. Az. Time Alt. Az. Time Alt. Az.
19 May -3.9 00:12:32 10° WNW 00:15:52 70° SSW 00:15:52 70° SSW visible
19 May -3.8 23:24:50 10° WNW 23:28:11 82° NNE 23:29:49 28° ESE visible
20 May -1.2 01:02:07 10° W 01:02:44 13° W 01:02:44 13° W visible
20 May -3.4 22:37:07 10° WNW 22:40:27 61° NNE 22:43:44 10° E visible
21 May -2.5 00:14:07 10° W 00:16:41 29° SW 00:16:41 29° SW visible
21 May -3.3 23:26:15 10° WNW 23:29:28 46° SSW 23:30:38 31° SSE visible
22 May -3.7 22:38:27 10° WNW 22:41:47 71° SSW 22:44:37 14° SE visible
23 May -1.3 00:16:25 10° WSW 00:17:33 13° SW 00:17:33 13° SW visible
23 May -2.0 23:27:59 10° W 23:30:31 20° SW 23:31:34 18° SSW visible
24 May -2.5 22:39:55 10° W 22:42:55 31° SW 22:45:37 12° SSE visible
26 May -1.3 22:42:06 10° WSW 22:43:48 13° SW 22:45:29 10° SSW visible
